User: anonymous   Login
Location: *
(47.7167°N, 1.7333°W)
Time: 19:09:09
(UTC+00:00)
Language:

MOS 1 - Orbit

View from above orbital plane
View from above orbital plane
View from above satellite
View from above satellite

Ground track
Ground track

The orbit data is extracted from the following two-line orbital elements,

1 17527U 87018A   20184.86494284 +.00000303 +00000-0 +22624-3 0  9991
2 17527 099.1558 227.5454 0009406 108.3562 064.9598 14.02563333705074
Epoch (UTC): 02 July 2020 20:45:31
Eccentricity: 0.0009406
inclination: 99.1558°
perigee height: 878 km
apogee height: 892 km
right ascension of ascending node: 227.5454°
argument of perigee: 108.3562°
revolutions per day: 14.02563333
mean anomaly at epoch: 64.9598°
orbit number at epoch: 70507

The dashed part of the orbit path shows where the satellite is in the earth's shadow,  

DLR